SCP
0 0 0 0 0 0 0 0 0 0 0 0 0 0 0 0 0 0 0 0 0 0 0 0 0 0 0 0 0 0 0 0 0 0 0 0 0 0 0 0 0 0 0
0 0 0 0 0 0 0 0 0 0 0 0 0 0 0 0 0 0 0 0 0 0 0 0 0 0 0 0 0 0 0 0 0 0 0 0 0 0 0 0 0 0 0
0 0 0 0 0 1 1 1 0 0 0 0 0 0 0 0 0 0 0 0 0 0 0 0 0 0 0 0 0 0 0 0 0 0 0 0 0 0 0 0 0 0 0
0 0 0 0 1 1 1 1 1 0 0 0 0 0 0 0 0 0 0 0 0 0 0 0 0 0 0 0 0 0 0 0 0 0 0 0 0 0 0 0 0 0 0
0 0 0 0 1 1 1 1 1 0 0 0 0 0 0 0 0 0 0 0 0 0 0 0 0 0 0 0 0 0 0 0 0 0 0 0 0 0 0 0 0 0 0
0 0 0 0 1 1 1 1 1 1 0 0 0 0 0 0 0 0 0 0 0 0 0 0 0 0 0 0 0 0 0 0 0 0 0 0 0 0 0 0 0 0 0
0 0 0 0 0 1 1 1 1 0 0 0 0 0 0 0 0 0 0 0 0 0 0 0 0 0 0 0 0 0 0 0 0 0 0 0 0 0 0 0 0 0 0
0 0 0 0 0 0 0 0 0 0 0 0 0 0 0 0 0 0 0 0 0 0 0 0 0 0 0 0 0 0 0 0 0 0 0 0 0 0 0 0 0 0 0
0 0 0 0 0 0 0 0 0 0 0 0 0 0 0 0 0 0 0 0 0 0 0 0 0 0 0 0 0 0 0 0 0 0 0 0 0 0 0 0 0 0 0
0 0 0 0 0 0 0 0 0 0 0 0 0 0 0 0 0 0 0 0 0 1 1 0 0 0 0 0 0 0 0 0 0 0 0 0 0 0 0 0 0 0 0
0 0 0 0 0 0 0 0 0 0 0 0 0 0 0 0 0 0 0 0 0 1 1 1 0 0 0 0 0 0 0 0 0 0 0 0 0 0 0 0 0 0 0
0 0 0 0 0 0 0 0 0 0 0 0 0 0 0 0 0 0 0 0 0 0 0 0 0 0 0 0 0 0 0 0 0 0 0 0 0 0 0 0 0 0 0
0 0 0 0 0 0 0 0 0 0 0 0 0 0 0 0 0 0 0 0 0 0 0 0 0 0 0 0 0 0 0 0 0 0 0 0 0 0 0 0 0 0 0
0 0 0 0 0 0 0 0 0 0 0 0 0 0 0 0 0 0 0 0 0 0 0 0 0 0 0 0 0 0 0 0 0 0 0 0 0 0 0 0 0 0 0
0 0 0 0 0 0 0 0 0 0 0 0 0 0 0 0 0 0 0 0 0 0 0 0 0 0 0 0 0 0 0 0 0 0 0 0 0 0 0 0 0 0 0
0 0 0 0 0 0 0 0 0 0 0 0 0 0 0 0 0 0 0 0 0 0 0 0 0 0 0 0 0 0 0 0 0 0 0 0 0 0 0 0 0 0 0
0 0 0 0 0 0 0 0 0 0 0 0 0 0 0 0 0 0 0 0 0 0 0 0 0 0 0 0 0 0 0 0 0 0 0 0 0 0 0 0 0 0 0
0 0 0 0 0 0 0 0 0 0 0 0 0 0 0 0 0 0 0 0 0 0 0 0 0 0 0 0 0 0 0 0 0 0 0 0 0 0 0 0 0 0 0
0 0 0 0 0 0 0 0 0 0 0 0 0 0 0 0 0 0 0 0 0 0 0 0 0 0 0 0 0 0 0 0 0 0 0 0 0 0 0 0 0 0 0
0 0 0 0 0 0 0 0 0 0 0 0 0 0 0 0 0 0 0 0 0 0 0 0 0 0 0 0 0 0 0 0 0 0 0 0 0 0 0 0 0 0 0
0 0 0 0 0 0 0 0 0 0 0 0 0 0 0 0 0 0 0 0 0 0 0 0 0 0 0 0 0 0 0 0 0 0 0 0 0 0 0 0 0 0 0
0 0 0 0 0 0 0 0 0 0 0 0 0 0 0 0 0 0 0 0 0 0 0 0 0 0 0 0 0 0 0 0 0 0 0 0 0 0 0 0 0 0 0
0 0 0 0 0 0 0 0 0 0 0 0 0 0 0 0 0 0 0 0 0 0 0 0 0 0 0 0 0 0 0 0 0 0 0 0 0 0 0 0 0 0 0
0 0 0 0 0 0 0 0 0 0 0 0 0 0 0 0 0 0 0 0 0 0 0 0 0 0 0 0 0 0 0 0 0 0 0 0 0 0 0 0 0 0 0
0 0 0 0 0 0 0 0 0 0 0 0 0 0 0 0 0 0 0 0 0 0 0 0 0 0 0 0 0 0 0 0 0 0 0 0 0 0 0 0 0 0 0
0 0 0 0 0 0 0 0 0 0 0 0 0 0 0 0 0 0 0 0 0 0 0 0 0 0 0 0 0 0 0 0 0 0 0 0 0 0 0 0 0 0 0
Wind_Speed
2 2 2 4 5 7 7 7 7 7 7 7 7 7 8 8 8 8 8 8 8 8 9 9 9 9 10 10 11 11 12 12 12 12 12 11 11 11 12 11 10 7 12
2 1 3 3 4 5 6 6 6 6 6 6 7 7 7 7 7 7 7 7 7 8 8 9 9 9 9 10 10 11 11 11 12 11 10 9 9 10 11 10 9 7 11
1 1 2 3 4 4 4 5 5 5 5 5 6 6 6 6 6 6 6 6 6 7 8 8 8 9 9 9 9 9 10 10 10 9 8 4 6 10 10 10 9 10 10
2 2 2 2 3 3 4 4 4 4 4 5 5 5 6 6 6 6 6 6 6 7 7 8 8 8 9 8 8 8 8 8 8 6 3 2 3 8 9 9 9 9 10
3 2 1 3 3 2 2 3 2 3 4 4 5 5 5 6 6 7 6 6 6 7 7 8 8 9 8 8 8 8 7 6 5 4 2 2 2 7 8 8 8 9 9
4 3 2 3 3 2 1 1 1 2 3 4 5 5 6 6 7 7 7 6 7 7 8 9 9 9 8 8 8 7 6 5 5 3 2 2 2 7 8 8 8 8 8
4 3 3 3 3 3 2 1 1 2 3 4 5 6 7 7 7 8 7 7 8 8 9 9 10 10 9 8 8 7 5 5 4 3 3 3 4 8 8 8 7 7 7
4 4 4 4 4 3 3 3 2 3 3 4 5 6 7 7 8 8 8 9 9 10 10 10 10 10 10 9 8 7 4 4 4 3 3 4 7 9 8 8 7 6 6
6 5 5 4 4 4 4 4 4 4 4 5 5 5 6 6 7 8 8 9 10 11 11 11 11 11 10 10 9 7 5 4 3 2 4 4 8 10 9 8 7 6 6
6 6 5 5 4 4 3 4 5 5 5 5 5 5 6 6 7 8 8 9 10 11 11 12 12 12 11 10 9 7 6 4 3 3 2 5 10 11 10 9 8 7 6
7 6 5 5 5 4 4 4 4 5 5 5 4 5 5 4 4 5 7 8 10 11 11 12 12 12 10 9 9 8 6 2 3 3 3 8 12 12 11 10 9 8 7
7 7 5 6 5 5 4 4 3 3 3 3 3 3 3 3 3 5 6 8 10 10 11 12 12 11 8 4 6 7 3 4 3 3 4 11 13 13 12 11 11 10 9
5 6 6 6 5 5 4 3 2 2 2 3 3 4 3 2 3 3 2 4 5 7 6 7 8 5 5 5 4 4 4 4 3 3 5 12 14 14 13 13 12 11 10
6 6 7 6 5 5 4 4 3 2 2 2 3 4 2 2 2 2 2 3 3 3 4 4 4 6 6 7 7 6 6 5 4 4 5 12 14 15 15 15 14 13 12
6 7 7 7 6 6 5 4 4 3 3 3 3 3 3 2 3 3 3 3 4 3 4 5 5 6 7 7 7 8 8 8 7 6 5 12 14 15 16 16 16 15 14
6 7 7 7 6 6 5 4 4 4 3 3 3 4 3 2 3 3 3 3 4 4 5 5 6 6 6 6 8 8 9 8 8 7 6 8 14 15 16 17 17 17 16
6 7 8 7 7 7 6 6 5 4 4 3 3 4 4 3 3 3 3 3 4 4 5 5 5 5 5 6 8 9 8 8 8 9 8 6 7 13 15 18 18 18 17
6 7 8 8 8 8 6 6 4 4 4 3 3 4 4 4 3 3 3 3 4 3 4 4 5 5 6 6 6 7 7 7 9 9 8 7 6 7 11 16 16 17 18
6 7 8 8 8 8 7 5 4 4 4 4 4 4 4 5 4 3 2 3 3 3 4 5 5 5 5 6 6 6 6 6 7 8 8 9 8 8 7 11 15 15 16
5 6 7 8 8 8 6 5 4 4 4 4 4 4 6 5 5 3 2 3 3 3 4 4 5 5 4 5 6 6 6 6 6 7 8 7 8 9 9 8 8 10 15
6 7 7 8 8 7 5 5 4 4 4 4 4 5 6 6 5 4 3 3 2 2 3 4 4 5 5 3 3 4 4 5 6 6 6 6 8 9 9 9 8 7 7
6 7 7 7 7 7 5 4 3 3 3 3 4 5 6 6 5 4 4 2 2 2 3 2 2 3 3 3 2 2 3 3 5 6 6 7 7 6 8 9 8 9 7
6 6 7 7 7 7 7 4 4 3 3 3 5 5 5 6 5 4 4 3 2 2 2 2 2 2 3 3 2 3 3 4 2 3 6 6 6 6 6 7 9 9 9
5 5 6 6 6 7 6 5 5 4 4 4 4 4 5 5 5 5 4 4 3 2 2 2 1 2 2 2 3 3 3 2 2 3 2 4 6 6 7 6 7 8 7
3 4 5 6 6 6 6 5 4 4 4 4 4 5 5 5 5 5 5 4 3 3 3 3 2 2 1 2 2 2 3 2 2 3 4 3 3 5 5 6 5 5 6
3 4 4 5 5 6 6 6 5 5 5 5 5 5 5 4 4 6 5 4 4 3 3 3 2 2 2 2 2 2 2 2 2 3 4 4 4 4 5 5 6 5 5
Wind_Direction
300 256 158 134 137 136 137 138 139 140 138 136 134 129 125 122 121 122 123 125 126 125 123 122 118 114 111 109 109 107 104 100 97 93 89 88 91 94 96 89 85 79 87
234 226 150 131 132 136 140 143 144 149 149 149 148 145 143 140 137 136 136 137 138 135 131 128 126 122 119 116 116 114 111 107 104 98 89 82 86 94 98 95 92 91 88
86 117 139 131 126 127 137 143 150 159 165 166 164 160 160 158 156 152 152 153 154 150 143 138 136 133 128 124 123 122 120 117 112 106 96 87 93 99 101 101 97 93 92
74 89 94 106 115 125 133 141 159 171 178 180 180 177 176 176 173 169 170 168 168 163 155 147 144 141 138 138 136 132 129 125 120 115 102 102 104 110 109 109 104 100 95
44 50 59 84 88 106 133 148 163 183 191 196 196 195 195 192 191 187 184 180 175 168 162 156 152 151 150 151 150 146 139 133 121 109 113 130 128 123 117 113 110 105 101
29 22 49 63 59 61 71 140 183 203 212 210 212 214 212 209 209 202 193 187 180 176 172 167 163 164 165 165 164 160 151 139 124 117 138 153 151 137 129 123 120 116 112
26 14 24 42 40 32 26 3 278 242 232 230 229 228 226 223 219 213 202 193 189 187 183 179 177 176 177 180 178 174 162 146 135 144 161 167 168 151 142 137 133 127 124
28 17 13 13 16 14 1 343 317 283 261 249 241 239 237 233 229 223 213 201 199 197 193 188 187 187 187 191 193 187 170 157 145 155 170 178 177 162 154 151 148 141 136
23 17 7 0 360 350 338 325 307 299 282 268 259 251 246 242 238 232 223 210 207 206 200 194 193 193 195 199 202 197 184 173 155 168 179 186 184 173 166 163 164 161 155
19 13 5 1 357 344 323 318 314 302 295 282 272 262 252 244 241 237 228 217 212 210 205 200 198 198 199 202 206 204 197 182 179 187 189 199 194 183 176 175 177 178 175
10 1 1 358 351 341 326 325 320 309 298 293 280 268 258 247 240 238 232 223 217 212 208 204 203 201 200 204 209 209 202 186 184 197 199 207 200 194 186 185 187 190 189
357 351 358 357 348 342 332 331 318 314 305 292 278 269 258 245 244 243 234 226 222 216 211 209 206 202 196 201 212 210 204 201 200 209 209 209 205 202 196 193 195 198 197
348 350 350 350 347 344 335 328 319 312 303 296 286 272 261 248 248 245 236 230 225 219 215 215 207 201 196 197 204 207 209 210 209 218 217 212 211 207 202 199 200 202 203
357 350 345 343 344 340 332 323 314 313 305 296 288 283 266 253 245 238 229 226 219 216 211 210 206 204 203 204 207 211 214 217 216 215 220 217 215 212 207 204 204 206 208
358 346 341 339 343 339 336 325 326 316 309 301 299 293 276 258 249 241 235 225 222 218 212 212 210 209 209 211 215 217 219 220 222 216 220 217 215 213 211 210 209 209 212
354 343 337 338 341 338 336 325 315 316 314 313 305 300 292 273 260 250 243 233 226 220 219 214 214 213 215 214 220 222 223 220 223 220 218 218 218 215 214 213 214 213 214
347 344 342 338 345 342 334 326 323 317 319 317 312 310 307 296 274 259 250 243 238 229 222 219 219 217 221 221 225 226 226 223 222 220 217 214 216 219 218 217 217 217 217
352 348 344 345 346 341 334 325 324 324 324 317 313 315 314 305 288 266 258 255 251 238 227 222 217 219 224 224 227 229 228 225 224 221 216 213 212 216 219 221 222 221 220
358 352 349 347 345 339 334 329 330 330 331 327 328 328 325 321 307 279 261 268 260 243 234 232 225 219 227 229 230 232 230 226 222 220 218 215 214 214 213 219 221 223 223
0 357 355 351 347 341 337 337 342 346 343 346 343 337 333 331 325 310 291 289 281 261 249 241 237 230 230 231 239 240 235 230 222 219 219 218 218 217 215 216 217 224 225
4 0 355 353 348 350 348 344 342 342 342 345 342 340 340 338 333 329 321 317 305 276 267 255 238 234 233 222 232 253 250 237 229 225 221 218 220 220 216 217 215 216 223
-0 355 353 352 349 350 344 334 322 315 326 335 335 337 343 341 338 336 336 324 320 304 295 288 275 252 237 208 208 230 255 258 240 230 222 220 223 218 221 221 219 218 218
355 351 348 344 346 348 346 345 342 341 336 346 344 343 343 340 341 341 335 327 326 318 302 298 291 273 265 240 205 207 215 232 256 243 227 225 225 224 226 223 222 224 221
342 342 345 343 347 349 352 355 355 354 341 330 327 328 331 339 342 344 341 338 335 327 321 304 302 276 265 269 258 238 243 239 233 259 252 228 226 227 230 230 225 224 220
334 341 344 344 349 351 356 354 351 346 331 322 331 336 335 339 346 346 344 341 339 331 321 314 314 301 273 264 268 272 258 263 250 252 259 246 240 227 227 229 226 226 224
336 343 345 346 346 351 355 357 359 351 342 341 341 337 333 333 338 345 345 345 342 338 328 318 311 302 293 287 280 277 272 250 241 249 256 253 249 239 233 227 220 224 227